PORTS® Data Listing: 8771450 Galveston Pier 21, TX

CO-OPS RAW PORTS DATA

************************      PRELIMINARY DATA      ************************** 

     THIS RAW DATA HAS NOT BEEN SUBJECT TO THE NATIONAL OCEAN SERVICE'S        
     QUALITY CONTROL OR QUALITY ASSURANCE PROCEDURES AND DOES NOT MEET         
     THE CRITERIA AND STANDARDS OF OFFICIAL NATIONAL OCEAN SERVICE             
     DATA.  IT IS RELEASED FOR LIMITED PUBLIC USE AS PRELIMINARY DATA TO       
     BE USED ONLY WITH APPROPRIATE CAUTION.                                    

************************      PRELIMINARY DATA      ************************** 


       CD   -   Calendar date
       T    -   Time
       TZ   -   Timezone
       PW   -   Predicted water level (feet above MLLW)
       OW   -   Observed water level (feet above MLLW)
       WS   -   Wind speed (knots)
       WD   -   Wind direction (degrees true)
       WG   -   Wind gust (knots)
       AT   -   Air temperature (degrees farenheit)
       WT   -   Water temperature (degrees farenheit)
       AP   -   Air pressure (millibars)
       SA   -   Salinty (PSU - Practical Salinity Units)
       SG   -   Specific gravity
       RH   -   Relative humidity
       AG   -   Air gap (feet)
       VI   -   Visibility (nautical miles)

       ** NOTE **
       A variable that has its data fields filled with "9"s, indicates that
       data was not collected for that sample period.
       **********


STATION NAME: Galveston Pier 21 (8771450)
****************************************************************************************************
    CD       T    TZ    PW     OW    WS   WD   WG    AT    WT    AP    SA    SG     RH    AG   VI
****************************************************************************************************
2019/11/13 21:54 CST    1.42   2.35    4   90    7  50.7  61.3 1022.1 -9.9 -9.999 -99.9 -99.99 -9.99
2019/11/13 22:00 CST    1.41   2.33    5   77    7  50.9  61.3 1021.8 -9.9 -9.999 -99.9 -99.99 -9.99
2019/11/13 22:06 CST    1.41   2.31    5   79    8  50.7  61.3 1021.8 -9.9 -9.999 -99.9 -99.99 -9.99
2019/11/13 22:12 CST    1.41   2.38    5   79    8  50.9  61.5 1021.8 -9.9 -9.999 -99.9 -99.99 -9.99
2019/11/13 22:18 CST    1.40   2.43    6   70    8  50.5  61.5 1021.7 -9.9 -9.999 -99.9 -99.99 -9.99
2019/11/13 22:24 CST    1.40   2.41    6   75    8  50.5  61.5 1021.6 -9.9 -9.999 -99.9 -99.99 -9.99
2019/11/13 22:30 CST    1.40   2.33    6   75    8  50.7  61.5 1021.5 -9.9 -9.999 -99.9 -99.99 -9.99
2019/11/13 22:36 CST    1.40   2.32    5   75    9  50.7  61.5 1021.5 -9.9 -9.999 -99.9 -99.99 -9.99
2019/11/13 22:42 CST    1.40   2.37    6   80    8  50.9  61.5 1021.3 -9.9 -9.999 -99.9 -99.99 -9.99
2019/11/13 22:48 CST    1.40   2.41    6   87    9  50.9  61.5 1021.3 -9.9 -9.999 -99.9 -99.99 -9.99
2019/11/13 22:54 CST    1.40   2.47    6   86   11  51.1  61.5 1021.4 -9.9 -9.999 -99.9 -99.99 -9.99
2019/11/13 23:00 CST    1.40   2.43    7   81   11  51.3  61.5 1021.3 -9.9 -9.999 -99.9 -99.99 -9.99
2019/11/13 23:06 CST    1.40   2.42    6   78   10  51.4  61.5 1021.3 -9.9 -9.999 -99.9 -99.99 -9.99
2019/11/13 23:12 CST    1.40   2.47    5   75    8  51.4  61.5 1021.3 -9.9 -9.999 -99.9 -99.99 -9.99
2019/11/13 23:18 CST    1.40   2.52    5   72    9  51.6  61.5 1021.4 -9.9 -9.999 -99.9 -99.99 -9.99
2019/11/13 23:24 CST    1.40   2.52    5   77   11  51.8  61.5 1021.5 -9.9 -9.999 -99.9 -99.99 -9.99
2019/11/13 23:30 CST    1.41   2.47    5   78    9  51.8  61.5 1021.5 -9.9 -9.999 -99.9 -99.99 -9.99
2019/11/13 23:36 CST    1.41   2.46    7   74    9  51.8  61.5 1021.4 -9.9 -9.999 -99.9 -99.99 -9.99
2019/11/13 23:42 CST    1.41   2.53    5   71    9  51.8  61.5 1021.5 -9.9 -9.999 -99.9 -99.99 -9.99
2019/11/13 23:48 CST    1.41   2.57    6   75    9  52.0  61.5 1021.5 -9.9 -9.999 -99.9 -99.99 -9.99
2019/11/13 23:54 CST    1.42   2.54    5   78    9  52.0  61.5 1021.3 -9.9 -9.999 -99.9 -99.99 -9.99
2019/11/14 00:00 CST    1.42   2.53    6   79   10  52.0  61.5 1021.1 -9.9 -9.999 -99.9 -99.99 -9.99
2019/11/14 00:06 CST    1.42   2.57    7   85   10  52.0  61.5 1021.0 -9.9 -9.999 -99.9 -99.99 -9.99
2019/11/14 00:12 CST    1.43   2.59    8   85   11  52.3  61.5 1020.9 -9.9 -9.999 -99.9 -99.99 -9.99
2019/11/14 00:18 CST    1.43   2.55    7   80   10  52.3  61.5 1020.7 -9.9 -9.999 -99.9 -99.99 -9.99
2019/11/14 00:24 CST    1.43   2.52    8   85   12  52.5  61.5 1020.8 -9.9 -9.999 -99.9 -99.99 -9.99
2019/11/14 00:30 CST    1.44   2.52    6   83   13  52.5  61.5 1020.8 -9.9 -9.999 -99.9 -99.99 -9.99
2019/11/14 00:36 CST    1.44   2.55    9   78   11  52.5  61.5 1020.7 -9.9 -9.999 -99.9 -99.99 -9.99
2019/11/14 00:42 CST    1.44   2.60    7   73   12  52.5  61.5 1020.9 -9.9 -9.999 -99.9 -99.99 -9.99
2019/11/14 00:48 CST    1.45   2.61    7   74   10  52.3  61.5 1021.0 -9.9 -9.999 -99.9 -99.99 -9.99
2019/11/14 00:54 CST    1.45   2.61    6   72   10  52.3  61.5 1021.1 -9.9 -9.999 -99.9 -99.99 -9.99
2019/11/14 01:00 CST    1.45   2.61    7   72   11  52.5  61.5 1020.9 -9.9 -9.999 -99.9 -99.99 -9.99
2019/11/14 01:06 CST    1.46   2.58    7   73   10  52.5  61.5 1021.2 -9.9 -9.999 -99.9 -99.99 -9.99
2019/11/14 01:12 CST    1.46   2.56    7   72   11  52.5  61.5 1021.3 -9.9 -9.999 -99.9 -99.99 -9.99
2019/11/14 01:18 CST    1.46   2.57    7   75   10  52.7  61.5 1021.1 -9.9 -9.999 -99.9 -99.99 -9.99
2019/11/14 01:24 CST    1.47   2.60    7   76   11  52.7  61.5 1021.1 -9.9 -9.999 -99.9 -99.99 -9.99
2019/11/14 01:30 CST    1.47   2.57    7   67   11  52.3  61.5 1021.2 -9.9 -9.999 -99.9 -99.99 -9.99
2019/11/14 01:36 CST    1.47   2.51    6   46   10  50.7  61.5 1021.2 -9.9 -9.999 -99.9 -99.99 -9.99
2019/11/14 01:42 CST    1.47   2.50    6   40   11  50.9  61.7 1021.2 -9.9 -9.999 -99.9 -99.99 -9.99
2019/11/14 01:48 CST    1.47   2.57    8   41   11  50.5  61.7 1021.1 -9.9 -9.999 -99.9 -99.99 -9.99
2019/11/14 01:54 CST    1.48   2.62    6   61   11  50.7  61.7 1021.1 -9.9 -9.999 -99.9 -99.99 -9.99
2019/11/14 02:00 CST    1.48   2.61    5   61    9  50.7  61.7 1021.2 -9.9 -9.999 -99.9 -99.99 -9.99
2019/11/14 02:06 CST    1.48   2.59    5   50   10  50.9  61.7 1021.2 -9.9 -9.999 -99.9 -99.99 -9.99
2019/11/14 02:12 CST    1.48   2.61    6   59   12  50.7  61.7 1021.2 -9.9 -9.999 -99.9 -99.99 -9.99
2019/11/14 02:18 CST    1.48   2.62    6   46   10  50.9  61.7 1021.1 -9.9 -9.999 -99.9 -99.99 -9.99
2019/11/14 02:24 CST    1.48   2.62    6   64   10  50.5  61.7 1021.1 -9.9 -9.999 -99.9 -99.99 -9.99
2019/11/14 02:30 CST    1.48   2.58    6   62   10  50.5  61.7 1020.9 -9.9 -9.999 -99.9 -99.99 -9.99
2019/11/14 02:36 CST    1.48   2.52    8   63   11  50.7  61.7 1020.9 -9.9 -9.999 -99.9 -99.99 -9.99
2019/11/14 02:42 CST    1.48   2.53    7   68   11  50.7  61.7 1020.6 -9.9 -9.999 -99.9 -99.99 -9.99
2019/11/14 02:48 CST    1.47   2.59    7   75   11  50.5  61.7 1020.5 -9.9 -9.999 -99.9 -99.99 -9.99
2019/11/14 02:54 CST    1.47   2.60   10   76   13  50.9  61.7 1020.3 -9.9 -9.999 -99.9 -99.99 -9.99
2019/11/14 03:00 CST    1.47   2.53   10   76   15  51.1  61.7 1020.2 -9.9 -9.999 -99.9 -99.99 -9.99
2019/11/14 03:06 CST    1.46   2.49    9   76   14  51.3  61.7 1020.2 -9.9 -9.999 -99.9 -99.99 -9.99
2019/11/14 03:12 CST    1.46   2.57   10   78   14  51.4  61.7 1020.3 -9.9 -9.999 -99.9 -99.99 -9.99
2019/11/14 03:18 CST    1.46   2.59   10   75   14  51.6  61.7 1020.5 -9.9 -9.999 -99.9 -99.99 -9.99
2019/11/14 03:24 CST    1.45   2.55    8   76   15  51.8  61.7 1020.6 -9.9 -9.999 -99.9 -99.99 -9.99
2019/11/14 03:30 CST    1.44   2.52    9   76   13  51.8  61.7 1020.4 -9.9 -9.999 -99.9 -99.99 -9.99
2019/11/14 03:36 CST    1.44   2.47   11   74   14  51.8  61.7 1020.3 -9.9 -9.999 -99.9 -99.99 -9.99
2019/11/14 03:42 CST    1.43   2.47   12   76   16  51.8  61.7 1020.2 -9.9 -9.999 -99.9 -99.99 -9.99
2019/11/14 03:48 CST    1.42   2.47    8   73   15  52.0  61.7 1020.2 -9.9 -9.999 -99.9 -99.99 -9.99
2019/11/14 03:54 CST    1.41   2.42    8   79   15  52.0  61.7 1020.3 -9.9 -9.999 -99.9 -99.99 -9.99
2019/11/14 04:00 CST    1.40   2.45    9   69   13  52.2  61.7 1020.4 -9.9 -9.999 -99.9 -99.99 -9.99
2019/11/14 04:06 CST    1.39   2.44    9   72   14  52.2  61.7 1020.5 -9.9 -9.999 -99.9 -99.99 -9.99
2019/11/14 04:12 CST    1.38   2.43    9   75   14  52.2  61.7 1020.6 -9.9 -9.999 -99.9 -99.99 -9.99
2019/11/14 04:18 CST    1.37   2.39    9   75   14  52.3  61.7 1020.4 -9.9 -9.999 -99.9 -99.99 -9.99
2019/11/14 04:24 CST    1.36   2.37   11   73   15  52.3  61.7 1020.4 -9.9 -9.999 -99.9 -99.99 -9.99
2019/11/14 04:30 CST    1.34   2.35    8   76   15  52.3  61.7 1020.7 -9.9 -9.999 -99.9 -99.99 -9.99
2019/11/14 04:36 CST    1.33   2.30    9   78   14  52.2  61.7 1020.7 -9.9 -9.999 -99.9 -99.99 -9.99
2019/11/14 04:42 CST    1.31   2.26    8   74   14  52.2  61.7 1020.7 -9.9 -9.999 -99.9 -99.99 -9.99
2019/11/14 04:48 CST    1.29   2.26    8   75   12  52.0  61.7 1020.7 -9.9 -9.999 -99.9 -99.99 -9.99
2019/11/14 04:54 CST    1.28   2.22    9   76   12  52.2  61.7 1020.7 -9.9 -9.999 -99.9 -99.99 -9.99
2019/11/14 05:00 CST    1.26   2.18    7   76   13  52.3  61.7 1020.7 -9.9 -9.999 -99.9 -99.99 -9.99
2019/11/14 05:06 CST    1.24   2.17   11   76   15  52.5  61.7 1020.5 -9.9 -9.999 -99.9 -99.99 -9.99
2019/11/14 05:12 CST    1.22   2.19   10   74   15  52.7  61.7 1020.6 -9.9 -9.999 -99.9 -99.99 -9.99
2019/11/14 05:18 CST    1.20   2.20    8   74   15  52.9  61.7 1020.6 -9.9 -9.999 -99.9 -99.99 -9.99
2019/11/14 05:24 CST    1.17   2.16    9   76   14  53.2  61.5 1020.5 -9.9 -9.999 -99.9 -99.99 -9.99
2019/11/14 05:30 CST    1.15   2.14   10   76   15  53.4  61.5 1020.7 -9.9 -9.999 -99.9 -99.99 -9.99
2019/11/14 05:36 CST    1.13   2.10   10   74   13  53.4  61.5 1020.7 -9.9 -9.999 -99.9 -99.99 -9.99
2019/11/14 05:42 CST    1.10   2.08    6   56   11  52.3  61.5 1020.8 -9.9 -9.999 -99.9 -99.99 -9.99
2019/11/14 05:48 CST    1.08   2.06    4   68   11  51.8  61.5 1021.0 -9.9 -9.999 -99.9 -99.99 -9.99
2019/11/14 05:54 CST    1.05   2.05    6   71   12  52.0  61.5 1021.1 -9.9 -9.999 -99.9 -99.99 -9.99
2019/11/14 06:00 CST    1.02   2.01    5   74    9  52.5  61.5 1021.3 -9.9 -9.999 -99.9 -99.99 -9.99
2019/11/14 06:06 CST    1.00   2.00    6   75    9  52.7  61.5 1021.4 -9.9 -9.999 -99.9 -99.99 -9.99
2019/11/14 06:12 CST    0.97   1.95    6   74   10  52.9  61.5 1021.3 -9.9 -9.999 -99.9 -99.99 -9.99
2019/11/14 06:18 CST    0.94   1.98    6   74   11  53.1  61.5 1021.4 -9.9 -9.999 -99.9 -99.99 -9.99
2019/11/14 06:24 CST    0.91   2.01    7   79   11  53.1  61.5 1021.8 -9.9 -9.999 -99.9 -99.99 -9.99
2019/11/14 06:30 CST    0.88   2.00    6   73    9  53.2  61.5 1021.8 -9.9 -9.999 -99.9 -99.99 -9.99
2019/11/14 06:36 CST    0.85   1.93    7   70   11  53.6  61.5 1021.7 -9.9 -9.999 -99.9 -99.99 -9.99
2019/11/14 06:42 CST    0.82   1.87   10   34   11  51.8  61.5 1021.8 -9.9 -9.999 -99.9 -99.99 -9.99
2019/11/14 06:48 CST    0.79   1.85    8   28   12  50.4  61.5 1021.9 -9.9 -9.999 -99.9 -99.99 -9.99
2019/11/14 06:54 CST    0.76   1.85    7   37   10  50.4  61.5 1022.1 -9.9 -9.999 -99.9 -99.99 -9.99
2019/11/14 07:00 CST    0.72   1.78    8   34   11  49.8  61.5 1022.2 -9.9 -9.999 -99.9 -99.99 -9.99
2019/11/14 07:06 CST    0.69   1.75    7   44   10  50.0  61.5 1022.2 -9.9 -9.999 -99.9 -99.99 -9.99
2019/11/14 07:12 CST    0.66   1.75    4   59   10  50.0  61.3 1022.4 -9.9 -9.999 -99.9 -99.99 -9.99
2019/11/14 07:18 CST    0.63   1.67    6   55    9  49.3  61.3 1022.6 -9.9 -9.999 -99.9 -99.99 -9.99
2019/11/14 07:24 CST    0.60   1.63    5   61    8  49.1  61.3 1022.8 -9.9 -9.999 -99.9 -99.99 -9.99
2019/11/14 07:30 CST    0.56   1.60    5   60    9  49.3  61.3 1022.8 -9.9 -9.999 -99.9 -99.99 -9.99
2019/11/14 07:36 CST    0.53   1.59    6   51    8  49.1  61.3 1022.8 -9.9 -9.999 -99.9 -99.99 -9.99
2019/11/14 07:42 CST    0.50   1.55    8   50   11  48.9  61.3 1022.6 -9.9 -9.999 -99.9 -99.99 -9.99
2019/11/14 07:48 CST    0.47   1.54    7   58   12  49.3  61.3 1022.5 -9.9 -9.999 -99.9 -99.99 -9.99
2019/11/14 07:54 CST    0.44   1.47    7   56   12  48.9  61.3 1022.5 -9.9 -9.999 -99.9 -99.99 -9.99
2019/11/14 08:00 CST    0.41   1.41    9   51   13  48.7  61.3 1022.5 -9.9 -9.999 -99.9 -99.99 -9.99
2019/11/14 08:06 CST    0.38   1.37    9   62   13  48.6  61.3 1022.5 -9.9 -9.999 -99.9 -99.99 -9.99
2019/11/14 08:12 CST    0.35   1.33    7   72   12  48.7  61.3 1022.4 -9.9 -9.999 -99.9 -99.99 -9.99
2019/11/14 08:18 CST    0.32   1.33    8   72   13  48.7  61.3 1022.4 -9.9 -9.999 -99.9 -99.99 -9.99
2019/11/14 08:24 CST    0.29   1.30    9   72   14  48.9  61.3 1022.4 -9.9 -9.999 -99.9 -99.99 -9.99
2019/11/14 08:30 CST    0.26   1.25   10   73   15  48.9  61.2 1022.4 -9.9 -9.999 -99.9 -99.99 -9.99
2019/11/14 08:36 CST    0.24   1.25    9   68   16  49.1  61.2 1022.3 -9.9 -9.999 -99.9 -99.99 -9.99
2019/11/14 08:42 CST    0.21   1.28    8   73   13  49.5  61.2 1022.3 -9.9 -9.999 -99.9 -99.99 -9.99
2019/11/14 08:48 CST    0.19   1.22    9   68   13  49.5  61.0 1022.2 -9.9 -9.999 -99.9 -99.99 -9.99
2019/11/14 08:54 CST    0.17   1.23    7   71   13  49.8  61.0 1022.2 -9.9 -9.999 -99.9 -99.99 -9.99
2019/11/14 09:00 CST    0.14   1.19    8   64   14  49.6  61.0 1022.4 -9.9 -9.999 -99.9 -99.99 -9.99
2019/11/14 09:06 CST    0.12   1.13    7   59   15  49.3  60.8 1022.6 -9.9 -9.999 -99.9 -99.99 -9.99
2019/11/14 09:12 CST    0.10   1.15    7   54   14  48.9  60.8 1023.0 -9.9 -9.999 -99.9 -99.99 -9.99
2019/11/14 09:18 CST    0.08   1.17    8   43   15  48.7  60.8 1023.5 -9.9 -9.999 -99.9 -99.99 -9.99
2019/11/14 09:24 CST    0.07   1.16    8   47   13  48.4  60.6 1023.6 -9.9 -9.999 -99.9 -99.99 -9.99
2019/11/14 09:30 CST    0.05   1.14   10   45   15  48.0  60.6 1023.5 -9.9 -9.999 -99.9 -99.99 -9.99
2019/11/14 09:36 CST    0.04   1.14    6   54   13  47.7  60.6 1023.6 -9.9 -9.999 -99.9 -99.99 -9.99
2019/11/14 09:42 CST    0.02   1.18    7   54   12  47.7  60.6 1023.5 -9.9 -9.999 -99.9 -99.99 -9.99
2019/11/14 09:48 CST    0.01   1.16    8   47   13  47.3  60.4 1023.6 -9.9 -9.999 -99.9 -99.99 -9.99
2019/11/14 09:54 CST   -0.00   1.17    6   51   11  47.7  60.4 1023.7 -9.9 -9.999 -99.9 -99.99 -9.99
2019/11/14 10:00 CST   -0.01   1.18    8   45   14  47.7  60.4 1023.7 -9.9 -9.999 -99.9 -99.99 -9.99
2019/11/14 10:06 CST   -0.02   1.20    6   57   10  47.7  60.4 1023.7 -9.9 -9.999 -99.9 -99.99 -9.99
2019/11/14 10:12 CST   -0.03   1.20    8   57   13  47.8  60.3 1023.6 -9.9 -9.999 -99.9 -99.99 -9.99
2019/11/14 10:18 CST   -0.03   1.16    9   72   15  48.2  60.3 1023.8 -9.9 -9.999 -99.9 -99.99 -9.99
2019/11/14 10:24 CST   -0.03   1.12    6   50   12  48.0  60.3 1023.7 -9.9 -9.999 -99.9 -99.99 -9.99
2019/11/14 10:30 CST   -0.04   1.14    6   56   11  47.8  60.3 1023.8 -9.9 -9.999 -99.9 -99.99 -9.99
2019/11/14 10:36 CST   -0.04   1.23    8   71   12  48.2  60.1 1023.6 -9.9 -9.999 -99.9 -99.99 -9.99
2019/11/14 10:42 CST   -0.04   1.28    8   50   12  47.7  60.1 1023.6 -9.9 -9.999 -99.9 -99.99 -9.99
2019/11/14 10:48 CST   -0.04   1.27   10   45   14  47.7  60.1 1023.4 -9.9 -9.999 -99.9 -99.99 -9.99
2019/11/14 10:54 CST   -0.03   1.25    7   59   14  47.7  59.9 1023.5 -9.9 -9.999 -99.9 -99.99 -9.99
2019/11/14 11:00 CST   -0.03   1.27    8   49   14  47.5  59.9 1023.6 -9.9 -9.999 -99.9 -99.99 -9.99
2019/11/14 11:06 CST   -0.02   1.30    9   45   14  47.3  59.9 1023.6 -9.9 -9.999 -99.9 -99.99 -9.99
2019/11/14 11:12 CST   -0.01   1.27    9   48   15  46.9  59.9 1023.7 -9.9 -9.999 -99.9 -99.99 -9.99
2019/11/14 11:18 CST   -0.01   1.24    8   50   13  46.8  59.7 1023.6 -9.9 -9.999 -99.9 -99.99 -9.99
2019/11/14 11:24 CST    0.01   1.24    7   59   14  47.1  59.7 1023.7 -9.9 -9.999 -99.9 -99.99 -9.99
2019/11/14 11:30 CST    0.02   1.29   11   39   14  46.9  59.7 1023.6 -9.9 -9.999 -99.9 -99.99 -9.99
2019/11/14 11:36 CST    0.03   1.29    9   49   13  46.9  59.7 1023.6 -9.9 -9.999 -99.9 -99.99 -9.99
2019/11/14 11:42 CST    0.04   1.24    9   46   14  46.8  59.7 1023.7 -9.9 -9.999 -99.9 -99.99 -9.99
2019/11/14 11:48 CST    0.06   1.21   10   41   14  47.1  59.5 1023.6 -9.9 -9.999 -99.9 -99.99 -9.99
2019/11/14 11:54 CST    0.07   1.26   11   37   14  46.9  59.5 1023.5 -9.9 -9.999 -99.9 -99.99 -9.99
2019/11/14 12:00 CST    0.09   1.27   11   39   16  46.8  59.5 1023.6 -9.9 -9.999 -99.9 -99.99 -9.99
2019/11/14 12:06 CST    0.11   1.24   12   43   16  46.6  59.5 1023.5 -9.9 -9.999 -99.9 -99.99 -9.99
2019/11/14 12:12 CST    0.13   1.23   10   50   15  46.9  59.5 1023.5 -9.9 -9.999 -99.9 -99.99 -9.99
2019/11/14 12:18 CST    0.15   1.23   12   43   15  46.9  59.5 1023.4 -9.9 -9.999 -99.9 -99.99 -9.99
2019/11/14 12:24 CST    0.17   1.29   11   36   14  46.9  59.4 1023.2 -9.9 -9.999 -99.9 -99.99 -9.99
2019/11/14 12:30 CST    0.19   1.37   12   38   15  46.8  59.4 1023.1 -9.9 -9.999 -99.9 -99.99 -9.99
2019/11/14 12:36 CST    0.21   1.37   14   32   16  46.8  59.4 1022.9 -9.9 -9.999 -99.9 -99.99 -9.99
2019/11/14 12:42 CST    0.24   1.33   11   33   15  47.1  59.4 1023.0 -9.9 -9.999 -99.9 -99.99 -9.99
2019/11/14 12:48 CST    0.26   1.32   14   34   16  46.6  59.4 1023.0 -9.9 -9.999 -99.9 -99.99 -9.99
2019/11/14 12:54 CST    0.28   1.36   10   39   16  46.6  59.4 1023.0 -9.9 -9.999 -99.9 -99.99 -9.99
2019/11/14 13:00 CST    0.31   1.38   11   32   15  46.2  59.4 1023.0 -9.9 -9.999 -99.9 -99.99 -9.99
2019/11/14 13:06 CST    0.34   1.38   12   42   17  46.4  59.2 1022.8 -9.9 -9.999 -99.9 -99.99 -9.99
2019/11/14 13:12 CST    0.36   1.45   14   35   18  45.7  59.2 1023.0 -9.9 -9.999 -99.9 -99.99 -9.99
2019/11/14 13:18 CST    0.39   1.49   11   45   19  45.5  59.2 1023.1 -9.9 -9.999 -99.9 -99.99 -9.99
2019/11/14 13:24 CST    0.42   1.49   12   29   15  45.3  59.2 1023.2 -9.9 -9.999 -99.9 -99.99 -9.99
2019/11/14 13:30 CST    0.45   1.54   12   32   15  44.8  59.2 1023.1 -9.9 -9.999 -99.9 -99.99 -9.99
2019/11/14 13:36 CST    0.48   1.53   11   41   17  45.1  59.2 1023.1 -9.9 -9.999 -99.9 -99.99 -9.99
2019/11/14 13:42 CST    0.51   1.58   11   34   14  44.8  59.2 1023.1 -9.9 -9.999 -99.9 -99.99 -9.99
2019/11/14 13:48 CST    0.54   1.58   11   30   14  45.0  59.0 1023.2 -9.9 -9.999 -99.9 -99.99 -9.99
2019/11/14 13:54 CST    0.57   1.58   12   37   17  45.1  59.0 1023.2 -9.9 -9.999 -99.9 -99.99 -9.99
2019/11/14 14:00 CST    0.60   1.65   11   32   14  45.0  59.0 1023.2 -9.9 -9.999 -99.9 -99.99 -9.99
2019/11/14 14:06 CST    0.63   1.73   11   29   15  45.1  59.0 1023.0 -9.9 -9.999 -99.9 -99.99 -9.99
2019/11/14 14:12 CST    0.66   1.81   12   38   17  45.3  59.0 1022.8 -9.9 -9.999 -99.9 -99.99 -9.99
2019/11/14 14:18 CST    0.69   1.78   13   35   19  45.3  59.0 1022.8 -9.9 -9.999 -99.9 -99.99 -9.99
2019/11/14 14:24 CST    0.73   1.72   13   37   17  45.5  59.0 1022.8 -9.9 -9.999 -99.9 -99.99 -9.99
2019/11/14 14:30 CST    0.76   1.69   13   33   19  45.5  59.0 1022.9 -9.9 -9.999 -99.9 -99.99 -9.99
2019/11/14 14:36 CST    0.79   1.75   12   36   16  45.9  59.0 1022.7 -9.9 -9.999 -99.9 -99.99 -9.99
2019/11/14 14:42 CST    0.82   1.85    8   60   17  45.9  58.8 1022.5 -9.9 -9.999 -99.9 -99.99 -9.99
2019/11/14 14:48 CST    0.85   1.80   12   39   16  46.4  58.8 1022.8 -9.9 -9.999 -99.9 -99.99 -9.99
2019/11/14 14:54 CST    0.89   1.81   13   37   18  46.0  59.0 1022.8 -9.9 -9.999 -99.9 -99.99 -9.99
2019/11/14 15:00 CST    0.92   1.89    9   47   17  46.8  58.8 1022.8 -9.9 -9.999 -99.9 -99.99 -9.99
2019/11/14 15:06 CST    0.95   2.01    9   48   15  46.4  58.8 1022.8 -9.9 -9.999 -99.9 -99.99 -9.99
2019/11/14 15:12 CST    0.98   2.07   12   33   16  46.2  58.8 1022.8 -9.9 -9.999 -99.9 -99.99 -9.99
2019/11/14 15:18 CST    1.01   2.02   15   32   17  46.2  58.8 1022.9 -9.9 -9.999 -99.9 -99.99 -9.99
2019/11/14 15:24 CST    1.05   1.91   12   30   15  46.4  58.8 1023.0 -9.9 -9.999 -99.9 -99.99 -9.99
2019/11/14 15:30 CST    1.08   1.87   11   34   16  46.9  58.8 1022.8 -9.9 -9.999 -99.9 -99.99 -9.99
2019/11/14 15:36 CST    1.11   1.94   10   40   13  46.9  58.8 1022.9 -9.9 -9.999 -99.9 -99.99 -9.99
2019/11/14 15:42 CST    1.14   2.02   13   31   17  46.8  58.8 1022.9 -9.9 -9.999 -99.9 -99.99 -9.99
2019/11/14 15:48 CST    1.17 -99.99 -999 -999 -999 -99.9 -99.9 -999.9 -9.9 -9.999 -99.9 -99.99 -9.99
2019/11/14 15:54 CST    1.20 -99.99 -999 -999 -999 -99.9 -99.9 -999.9 -9.9 -9.999 -99.9 -99.99 -9.99
2019/11/14 16:00 CST    1.23 -99.99 -999 -999 -999 -99.9 -99.9 -999.9 -9.9 -9.999 -99.9 -99.99 -9.99
2019/11/14 16:06 CST    1.26 -99.99 -999 -999 -999 -99.9 -99.9 -999.9 -9.9 -9.999 -99.9 -99.99 -9.99
2019/11/14 16:12 CST    1.29 -99.99 -999 -999 -999 -99.9 -99.9 -999.9 -9.9 -9.999 -99.9 -99.99 -9.99
2019/11/14 16:18 CST    1.31 -99.99 -999 -999 -999 -99.9 -99.9 -999.9 -9.9 -9.999 -99.9 -99.99 -9.99
2019/11/14 16:24 CST    1.34 -99.99 -999 -999 -999 -99.9 -99.9 -999.9 -9.9 -9.999 -99.9 -99.99 -9.99
2019/11/14 16:30 CST    1.37 -99.99 -999 -999 -999 -99.9 -99.9 -999.9 -9.9 -9.999 -99.9 -99.99 -9.99
2019/11/14 16:36 CST    1.39 -99.99 -999 -999 -999 -99.9 -99.9 -999.9 -9.9 -9.999 -99.9 -99.99 -9.99
2019/11/14 16:42 CST    1.42 -99.99 -999 -999 -999 -99.9 -99.9 -999.9 -9.9 -9.999 -99.9 -99.99 -9.99
2019/11/14 16:48 CST    1.44 -99.99 -999 -999 -999 -99.9 -99.9 -999.9 -9.9 -9.999 -99.9 -99.99 -9.99
2019/11/14 16:54 CST    1.46 -99.99 -999 -999 -999 -99.9 -99.9 -999.9 -9.9 -9.999 -99.9 -99.99 -9.99
2019/11/14 17:00 CST    1.48 -99.99 -999 -999 -999 -99.9 -99.9 -999.9 -9.9 -9.999 -99.9 -99.99 -9.99
2019/11/14 17:06 CST    1.50 -99.99 -999 -999 -999 -99.9 -99.9 -999.9 -9.9 -9.999 -99.9 -99.99 -9.99
2019/11/14 17:12 CST    1.52 -99.99 -999 -999 -999 -99.9 -99.9 -999.9 -9.9 -9.999 -99.9 -99.99 -9.99
2019/11/14 17:18 CST    1.54 -99.99 -999 -999 -999 -99.9 -99.9 -999.9 -9.9 -9.999 -99.9 -99.99 -9.99
2019/11/14 17:24 CST    1.56 -99.99 -999 -999 -999 -99.9 -99.9 -999.9 -9.9 -9.999 -99.9 -99.99 -9.99
2019/11/14 17:30 CST    1.58 -99.99 -999 -999 -999 -99.9 -99.9 -999.9 -9.9 -9.999 -99.9 -99.99 -9.99
2019/11/14 17:36 CST    1.59 -99.99 -999 -999 -999 -99.9 -99.9 -999.9 -9.9 -9.999 -99.9 -99.99 -9.99
2019/11/14 17:42 CST    1.61 -99.99 -999 -999 -999 -99.9 -99.9 -999.9 -9.9 -9.999 -99.9 -99.99 -9.99
2019/11/14 17:48 CST    1.62 -99.99 -999 -999 -999 -99.9 -99.9 -999.9 -9.9 -9.999 -99.9 -99.99 -9.99
2019/11/14 17:54 CST    1.63 -99.99 -999 -999 -999 -99.9 -99.9 -999.9 -9.9 -9.999 -99.9 -99.99 -9.99
2019/11/14 18:00 CST    1.64 -99.99 -999 -999 -999 -99.9 -99.9 -999.9 -9.9 -9.999 -99.9 -99.99 -9.99
2019/11/14 18:06 CST    1.65 -99.99 -999 -999 -999 -99.9 -99.9 -999.9 -9.9 -9.999 -99.9 -99.99 -9.99
2019/11/14 18:12 CST    1.66 -99.99 -999 -999 -999 -99.9 -99.9 -999.9 -9.9 -9.999 -99.9 -99.99 -9.99
2019/11/14 18:18 CST    1.67 -99.99 -999 -999 -999 -99.9 -99.9 -999.9 -9.9 -9.999 -99.9 -99.99 -9.99
2019/11/14 18:24 CST    1.68 -99.99 -999 -999 -999 -99.9 -99.9 -999.9 -9.9 -9.999 -99.9 -99.99 -9.99
2019/11/14 18:30 CST    1.68 -99.99 -999 -999 -999 -99.9 -99.9 -999.9 -9.9 -9.999 -99.9 -99.99 -9.99
2019/11/14 18:36 CST    1.69 -99.99 -999 -999 -999 -99.9 -99.9 -999.9 -9.9 -9.999 -99.9 -99.99 -9.99
2019/11/14 18:42 CST    1.69 -99.99 -999 -999 -999 -99.9 -99.9 -999.9 -9.9 -9.999 -99.9 -99.99 -9.99
2019/11/14 18:48 CST    1.70 -99.99 -999 -999 -999 -99.9 -99.9 -999.9 -9.9 -9.999 -99.9 -99.99 -9.99
2019/11/14 18:54 CST    1.70 -99.99 -999 -999 -999 -99.9 -99.9 -999.9 -9.9 -9.999 -99.9 -99.99 -9.99
2019/11/14 19:00 CST    1.70 -99.99 -999 -999 -999 -99.9 -99.9 -999.9 -9.9 -9.999 -99.9 -99.99 -9.99
2019/11/14 19:06 CST    1.70 -99.99 -999 -999 -999 -99.9 -99.9 -999.9 -9.9 -9.999 -99.9 -99.99 -9.99
2019/11/14 19:12 CST    1.70 -99.99 -999 -999 -999 -99.9 -99.9 -999.9 -9.9 -9.999 -99.9 -99.99 -9.99
2019/11/14 19:18 CST    1.70 -99.99 -999 -999 -999 -99.9 -99.9 -999.9 -9.9 -9.999 -99.9 -99.99 -9.99
2019/11/14 19:24 CST    1.69 -99.99 -999 -999 -999 -99.9 -99.9 -999.9 -9.9 -9.999 -99.9 -99.99 -9.99
2019/11/14 19:30 CST    1.69 -99.99 -999 -999 -999 -99.9 -99.9 -999.9 -9.9 -9.999 -99.9 -99.99 -9.99
2019/11/14 19:36 CST    1.69 -99.99 -999 -999 -999 -99.9 -99.9 -999.9 -9.9 -9.999 -99.9 -99.99 -9.99
2019/11/14 19:42 CST    1.68 -99.99 -999 -999 -999 -99.9 -99.9 -999.9 -9.9 -9.999 -99.9 -99.99 -9.99
2019/11/14 19:48 CST    1.68 -99.99 -999 -999 -999 -99.9 -99.9 -999.9 -9.9 -9.999 -99.9 -99.99 -9.99
2019/11/14 19:54 CST    1.67 -99.99 -999 -999 -999 -99.9 -99.9 -999.9 -9.9 -9.999 -99.9 -99.99 -9.99
2019/11/14 20:00 CST    1.66 -99.99 -999 -999 -999 -99.9 -99.9 -999.9 -9.9 -9.999 -99.9 -99.99 -9.99
2019/11/14 20:06 CST    1.66 -99.99 -999 -999 -999 -99.9 -99.9 -999.9 -9.9 -9.999 -99.9 -99.99 -9.99
2019/11/14 20:12 CST    1.65 -99.99 -999 -999 -999 -99.9 -99.9 -999.9 -9.9 -9.999 -99.9 -99.99 -9.99
2019/11/14 20:18 CST    1.64 -99.99 -999 -999 -999 -99.9 -99.9 -999.9 -9.9 -9.999 -99.9 -99.99 -9.99
2019/11/14 20:24 CST    1.64 -99.99 -999 -999 -999 -99.9 -99.9 -999.9 -9.9 -9.999 -99.9 -99.99 -9.99
2019/11/14 20:30 CST    1.63 -99.99 -999 -999 -999 -99.9 -99.9 -999.9 -9.9 -9.999 -99.9 -99.99 -9.99
2019/11/14 20:36 CST    1.62 -99.99 -999 -999 -999 -99.9 -99.9 -999.9 -9.9 -9.999 -99.9 -99.99 -9.99
2019/11/14 20:42 CST    1.61 -99.99 -999 -999 -999 -99.9 -99.9 -999.9 -9.9 -9.999 -99.9 -99.99 -9.99
2019/11/14 20:48 CST    1.60 -99.99 -999 -999 -999 -99.9 -99.9 -999.9 -9.9 -9.999 -99.9 -99.99 -9.99
2019/11/14 20:54 CST    1.59 -99.99 -999 -999 -999 -99.9 -99.9 -999.9 -9.9 -9.999 -99.9 -99.99 -9.99
2019/11/14 21:00 CST    1.59 -99.99 -999 -999 -999 -99.9 -99.9 -999.9 -9.9 -9.999 -99.9 -99.99 -9.99
2019/11/14 21:06 CST    1.58 -99.99 -999 -999 -999 -99.9 -99.9 -999.9 -9.9 -9.999 -99.9 -99.99 -9.99
2019/11/14 21:12 CST    1.57 -99.99 -999 -999 -999 -99.9 -99.9 -999.9 -9.9 -9.999 -99.9 -99.99 -9.99
2019/11/14 21:18 CST    1.56 -99.99 -999 -999 -999 -99.9 -99.9 -999.9 -9.9 -9.999 -99.9 -99.99 -9.99
2019/11/14 21:24 CST    1.55 -99.99 -999 -999 -999 -99.9 -99.9 -999.9 -9.9 -9.999 -99.9 -99.99 -9.99
2019/11/14 21:30 CST    1.55 -99.99 -999 -999 -999 -99.9 -99.9 -999.9 -9.9 -9.999 -99.9 -99.99 -9.99
2019/11/14 21:36 CST    1.54 -99.99 -999 -999 -999 -99.9 -99.9 -999.9 -9.9 -9.999 -99.9 -99.99 -9.99
2019/11/14 21:42 CST    1.53 -99.99 -999 -999 -999 -99.9 -99.9 -999.9 -9.9 -9.999 -99.9 -99.99 -9.99
2019/11/14 21:48 CST    1.53 -99.99 -999 -999 -999 -99.9 -99.9 -999.9 -9.9 -9.999 -99.9 -99.99 -9.99
2019/11/14 21:54 CST    1.52 -99.99 -999 -999 -999 -99.9 -99.9 -999.9 -9.9 -9.999 -99.9 -99.99 -9.99